Wind_Speed
33 39 42 45 46 46 43 36 39 38 43 51 42 41 50 47 47 48 48 47 45 43 41 42 41 40 38 36 32 31 30 29 27 25 26 27 27 30 31 31 28 27 28 28
30 34 40 46 48 49 53 46 38 35 43 58 47 43 51 46 45 46 49 49 48 46 46 46 45 43 40 37 37 36 35 33 30 29 29 28 31 31 32 31 29 29 29 30
28 28 36 43 49 55 55 57 44 32 50 57 43 50 54 48 46 51 50 51 52 50 51 50 48 46 43 41 41 39 38 37 35 33 31 33 34 33 33 31 30 31 30 30
28 29 34 39 47 52 55 53 60 39 43 51 51 48 63 52 52 49 52 49 52 53 52 51 48 46 45 44 43 42 42 40 38 36 35 36 35 36 36 34 31 31 29 28
30 30 33 33 37 46 53 53 45 49 43 43 38 53 56 57 58 50 55 60 55 54 53 51 49 47 45 45 45 45 43 41 40 39 38 36 38 37 36 33 31 31 29 27
35 36 31 30 34 40 48 55 57 42 47 49 45 55 61 60 52 45 55 58 56 54 51 50 50 47 44 44 44 45 43 40 40 39 39 39 41 36 35 31 30 29 28 28
37 37 36 32 34 33 41 47 53 47 47 57 62 57 62 46 56 58 47 57 59 57 55 53 50 48 47 47 49 46 43 43 42 42 42 41 39 37 32 29 28 29 28 29
37 40 39 37 35 33 39 41 49 46 48 49 51 58 62 51 43 32 46 45 63 62 62 58 55 54 53 52 51 48 47 45 42 42 40 40 38 33 31 29 29 30 30 30
41 44 33 41 42 39 38 40 42 45 41 44 46 47 45 39 39 52 64 58 45 52 60 60 58 57 57 56 53 50 47 46 45 41 40 39 34 31 30 29 30 31 31 31
46 49 44 43 47 42 43 38 36 43 46 49 49 47 45 38 44 45 59 64 56 41 42 46 49 53 53 51 51 50 49 47 45 41 41 37 31 31 30 30 31 32 32 30
49 50 50 49 52 45 43 44 44 36 46 50 52 49 42 35 46 49 53 62 52 44 42 43 43 39 43 48 49 52 47 46 43 41 37 34 31 31 31 31 32 32 30 31
52 57 55 53 44 47 45 43 44 50 42 47 53 51 35 39 42 47 44 49 44 44 46 45 45 45 45 46 47 45 41 41 38 36 35 32 32 32 31 32 32 30 31 31
53 57 53 50 48 48 45 46 39 38 47 42 47 53 44 37 44 38 46 44 51 48 48 49 49 45 49 46 44 44 39 37 37 35 32 31 32 32 32 32 31 31 31 31
55 57 58 50 44 36 38 42 43 39 44 50 50 44 41 43 41 44 38 39 46 38 41 46 52 48 47 48 45 41 35 33 34 33 33 33 33 33 33 32 32 31 31 31
58 58 57 59 54 44 45 34 40 43 46 45 46 49 45 38 40 47 52 36 29 30 30 33 36 42 46 46 48 38 37 37 35 35 34 32 33 34 33 32 31 31 31 31
59 59 58 62 60 57 56 47 37 34 48 47 48 49 41 40 39 35 38 48 50 49 47 46 40 41 44 42 40 35 33 34 32 31 32 33 33 34 33 32 31 30 30 29
59 59 56 62 59 56 52 55 54 50 38 38 46 47 38 39 40 46 48 41 45 43 39 39 35 32 32 36 36 36 35 33 32 32 31 33 34 34 33 32 30 30 28 26
56 57 60 60 58 64 59 52 45 47 45 40 44 41 38 38 37 44 43 38 36 34 36 38 42 40 41 45 42 42 38 32 32 30 31 33 34 34 32 31 30 28 26 25
53 50 57 64 65 64 61 52 45 38 49 41 40 42 39 39 41 39 42 39 37 37 43 43 40 35 34 41 45 45 38 34 33 33 34 33 34 33 32 31 28 26 24 23
41 45 51 58 66 70 59 56 48 39 40 39 44 44 43 39 47 49 34 44 46 45 48 50 51 40 37 38 43 44 40 36 35 34 33 35 35 33 31 29 26 25 24 23
31 36 45 49 59 65 59 49 44 49 39 47 49 47 40 41 45 39 33 39 45 50 54 51 54 41 41 37 35 41 39 36 38 38 37 36 34 33 31 28 27 25 24 23
38 38 24 36 52 62 56 59 48 46 54 47 49 49 48 44 43 46 50 44 46 44 52 52 52 54 49 41 36 35 37 38 39 36 38 35 35 33 31 29 26 25 25 25
44 47 47 40 40 51 58 62 68 54 48 46 50 45 43 47 49 44 48 57 48 42 47 52 53 50 55 52 42 40 39 38 37 37 37 35 35 34 30 29 27 28 27 26
44 47 55 55 47 53 52 49 61 70 65 58 48 50 42 37 28 31 40 49 48 45 43 42 52 51 47 51 48 50 45 46 43 40 39 38 35 34 31 30 29 29 28 28
47 51 51 56 50 54 52 55 50 63 71 63 52 53 51 44 39 41 36 37 42 51 46 42 46 46 50 54 50 51 48 46 42 39 39 37 35 35 33 31 31 30 30 29
54 52 54 50 49 67 56 59 60 65 68 70 56 61 50 49 47 42 42 36 34 43 54 48 49 46 48 52 58 54 48 47 43 41 40 37 37 37 34 33 32 32 31 30
Wind_Direction
238 234 232 230 232 232 223 232 238 226 253 245 237 236 242 236 233 232 234 237 239 242 243 245 248 251 254 259 261 262 266 269 271 269 270 270 272 287 289 291 288 283 284 287
247 239 232 229 228 229 228 222 225 235 236 250 235 231 239 234 231 232 233 237 238 239 241 244 248 252 256 259 262 265 269 269 270 271 271 269 277 285 289 287 285 284 285 286
251 243 234 230 229 228 228 226 227 215 236 243 233 237 241 230 232 229 233 233 237 238 240 243 246 250 251 254 258 262 265 267 268 268 267 270 277 282 285 282 281 283 284 285
251 248 244 236 231 233 232 231 228 219 239 245 240 240 246 238 230 229 232 235 236 239 242 244 245 247 250 253 255 257 260 262 264 265 267 270 274 279 282 278 279 280 280 282
255 249 250 243 236 234 231 230 230 228 225 244 238 235 236 245 241 245 241 231 236 237 239 241 245 248 249 251 252 254 256 257 260 263 266 270 274 275 274 274 277 277 277 279
248 252 247 251 244 238 230 232 230 221 229 234 234 240 237 243 241 249 242 233 231 233 236 239 242 244 246 248 250 252 255 258 261 264 267 273 273 272 271 271 271 273 275 280
249 246 249 244 245 242 240 236 234 229 226 231 235 236 237 240 252 246 249 242 233 232 235 238 240 241 242 245 247 252 256 260 264 269 272 269 267 269 269 270 271 273 277 281
246 245 246 247 245 243 245 240 235 228 230 235 233 241 241 242 234 258 251 239 231 231 232 236 241 242 244 248 252 255 259 263 267 271 268 263 263 263 265 268 271 273 276 279
241 243 234 245 241 236 241 241 240 235 234 237 235 243 245 236 244 246 248 247 246 247 242 239 244 247 249 252 253 255 259 265 267 265 258 258 257 260 262 266 269 274 277 277
238 240 236 238 242 237 235 242 239 229 232 233 237 235 239 239 239 239 249 246 246 244 247 248 249 253 256 255 254 256 258 260 263 257 255 252 253 257 261 263 268 271 273 275
247 245 237 239 243 239 236 234 231 238 233 229 234 234 234 237 253 255 256 258 246 244 245 248 248 247 251 253 254 253 254 254 250 250 248 248 250 254 257 261 266 269 274 276
238 241 240 237 239 241 237 235 237 236 237 232 234 234 222 231 241 262 253 257 254 243 243 247 252 246 250 249 250 244 244 243 242 242 244 244 248 251 256 262 266 271 273 277
243 242 240 240 239 239 238 233 231 239 238 234 239 242 217 231 230 244 256 253 256 251 247 249 251 251 257 253 251 237 237 239 239 240 241 244 248 252 258 262 266 270 275 279
248 242 241 241 243 242 252 245 233 226 242 238 232 237 238 230 245 228 240 254 260 252 248 249 251 252 256 250 236 231 231 238 239 240 241 243 248 254 257 261 265 271 276 281
246 244 241 240 230 221 222 223 246 235 230 236 239 238 235 224 245 247 241 233 223 221 228 250 258 253 245 243 234 228 232 240 240 240 241 244 248 253 257 262 266 271 275 280
243 243 239 240 239 240 226 216 211 231 236 236 240 240 239 230 227 251 244 241 240 244 248 257 257 241 235 220 223 229 236 237 237 238 239 243 249 253 257 261 265 270 274 278
242 242 239 240 239 240 238 225 232 229 229 237 238 238 239 236 231 227 243 240 240 242 245 247 236 228 229 221 227 228 230 236 238 239 242 245 249 253 256 259 265 268 272 274
241 241 237 235 239 235 236 231 234 240 235 231 234 234 237 236 233 232 239 233 230 231 226 223 218 223 226 234 236 229 229 234 238 240 243 247 249 252 255 259 263 265 267 271
241 240 240 237 234 239 231 227 229 240 243 240 243 237 239 232 225 236 240 234 214 216 217 218 214 217 221 223 226 227 229 233 238 240 243 247 251 253 254 257 259 259 264 267
245 245 240 238 238 237 232 228 229 230 236 234 232 235 243 232 241 224 234 233 211 215 216 226 218 231 229 229 226 227 230 231 237 240 245 247 251 251 253 254 252 255 258 265
251 252 249 243 241 240 234 229 228 223 224 227 229 226 222 230 237 234 228 239 227 223 222 226 232 223 226 235 231 231 225 228 234 240 246 247 248 250 250 247 248 251 257 264
234 225 235 236 234 236 235 228 221 218 228 229 232 230 229 221 221 221 222 233 235 230 228 226 229 228 223 228 233 228 222 232 238 242 244 244 246 247 244 244 247 251 258 265
235 233 228 225 228 230 236 227 222 213 213 219 226 230 231 231 225 232 236 236 230 226 231 229 230 233 229 222 226 227 226 237 243 243 244 244 245 244 241 243 247 253 258 265
239 237 235 234 234 231 218 230 227 225 219 223 221 222 217 210 219 220 233 237 233 224 226 229 231 232 232 226 227 231 232 236 241 242 242 243 245 242 239 243 248 254 259 266
242 238 238 234 230 238 230 220 223 224 223 220 224 221 216 223 220 224 227 229 228 227 227 224 222 226 229 226 230 229 234 237 234 238 243 245 246 241 240 245 250 254 259 268
243 241 241 238 227 227 224 223 216 227 223 216 207 211 213 217 221 222 221 222 223 227 226 224 219 220 223 221 221 221 230 233 231 238 240 241 242 238 240 244 249 253 262 270
Height
5740 5744 5750 5754 5758 5764 5770 5778 5781 5788 5783 5786 5791 5793 5793 5801 5804 5807 5811 5817 5820 5823 5827 5828 5830 5832 5835 5836 5839 5840 5841 5841 5842 5843 5844 5845 5845 5843 5842 5840 5839 5839 5838 5837
5733 5738 5740 5743 5748 5752 5757 5764 5774 5783 5780 5770 5782 5782 5779 5790 5795 5800 5803 5807 5811 5815 5818 5820 5822 5825 5828 5830 5831 5832 5834 5835 5836 5836 5837 5837 5838 5837 5836 5834 5833 5833 5832 5831
5726 5730 5730 5733 5738 5740 5745 5752 5760 5771 5765 5761 5773 5771 5769 5780 5784 5790 5794 5798 5801 5806 5808 5811 5814 5817 5820 5822 5824 5826 5827 5828 5829 5830 5830 5831 5831 5831 5829 5828 5827 5827 5826 5826
5720 5720 5722 5724 5728 5733 5736 5746 5749 5757 5753 5753 5762 5762 5758 5771 5774 5779 5786 5790 5794 5796 5801 5803 5807 5810 5812 5815 5817 5818 5820 5821 5822 5823 5824 5824 5825 5824 5822 5822 5821 5820 5820 5820
5713 5713 5714 5717 5721 5718 5727 5732 5736 5742 5748 5746 5746 5752 5756 5754 5763 5770 5774 5778 5784 5788 5791 5795 5799 5801 5804 5807 5809 5810 5812 5814 5815 5816 5817 5817 5818 5817 5816 5815 5814 5814 5814 5814
5703 5704 5707 5709 5709 5711 5718 5716 5722 5728 5736 5733 5737 5741 5748 5746 5757 5762 5764 5767 5773 5777 5781 5785 5789 5792 5795 5797 5800 5800 5803 5806 5808 5809 5809 5810 5809 5808 5808 5808 5808 5808 5808 5807
5694 5696 5697 5699 5700 5704 5705 5707 5710 5716 5719 5718 5728 5731 5735 5747 5745 5750 5753 5757 5764 5766 5772 5775 5779 5783 5786 5788 5789 5793 5796 5798 5800 5800 5800 5800 5800 5800 5800 5800 5801 5801 5801 5800
5684 5686 5688 5691 5693 5696 5695 5698 5699 5704 5709 5714 5725 5714 5724 5736 5740 5739 5740 5746 5749 5754 5760 5764 5768 5771 5775 5779 5782 5786 5787 5790 5791 5792 5792 5792 5792 5792 5793 5793 5794 5794 5794 5794
5672 5674 5679 5678 5680 5684 5690 5685 5695 5696 5704 5708 5713 5717 5722 5729 5730 5731 5729 5736 5743 5747 5753 5756 5760 5763 5766 5770 5773 5776 5778 5780 5782 5783 5784 5784 5785 5785 5786 5786 5787 5788 5788 5787
5658 5659 5664 5665 5668 5675 5676 5686 5684 5683 5688 5693 5699 5706 5712 5721 5722 5725 5716 5722 5733 5740 5744 5746 5749 5752 5754 5758 5762 5765 5768 5770 5773 5774 5776 5776 5776 5778 5779 5780 5781 5781 5782 5781
5645 5647 5654 5654 5659 5665 5668 5669 5671 5676 5679 5681 5688 5694 5709 5716 5710 5714 5714 5709 5721 5729 5733 5734 5737 5740 5743 5746 5750 5755 5757 5760 5762 5765 5767 5768 5769 5771 5772 5773 5774 5774 5774 5773
5628 5630 5635 5642 5647 5651 5655 5659 5662 5663 5668 5671 5675 5680 5702 5702 5707 5698 5703 5703 5708 5714 5719 5723 5725 5729 5732 5735 5739 5742 5747 5750 5753 5755 5757 5759 5762 5763 5765 5766 5766 5766 5766 5765
5619 5621 5625 5630 5637 5639 5641 5648 5651 5656 5658 5662 5667 5668 5685 5689 5693 5693 5689 5693 5695 5702 5707 5713 5716 5721 5723 5726 5729 5733 5737 5741 5743 5746 5748 5751 5754 5755 5756 5758 5758 5758 5758 5758
5602 5607 5611 5617 5627 5636 5635 5635 5639 5646 5647 5649 5654 5664 5672 5679 5682 5687 5684 5681 5687 5690 5694 5701 5706 5710 5712 5717 5720 5725 5728 5731 5734 5737 5740 5743 5745 5747 5748 5750 5750 5750 5750 5749
5584 5591 5597 5600 5607 5614 5618 5621 5630 5630 5637 5641 5648 5651 5660 5669 5670 5673 5675 5676 5676 5681 5686 5691 5696 5698 5702 5707 5712 5716 5720 5723 5726 5729 5732 5734 5737 5739 5741 5742 5742 5742 5742 5741
5570 5574 5579 5581 5590 5596 5602 5608 5613 5622 5626 5630 5636 5638 5648 5655 5661 5659 5658 5666 5671 5676 5680 5683 5685 5687 5690 5697 5703 5707 5711 5714 5718 5721 5723 5726 5729 5731 5733 5734 5735 5735 5734 5734
5552 5558 5564 5566 5576 5581 5583 5596 5605 5611 5617 5623 5623 5631 5639 5642 5646 5647 5643 5655 5662 5666 5669 5672 5677 5681 5686 5691 5695 5699 5702 5706 5709 5712 5716 5718 5721 5723 5725 5726 5727 5727 5727 5727
5537 5542 5546 5551 5559 5557 5574 5588 5593 5598 5603 5610 5614 5619 5626 5630 5635 5637 5638 5644 5650 5655 5660 5663 5666 5671 5676 5682 5686 5689 5692 5698 5702 5705 5708 5711 5714 5716 5717 5718 5719 5719 5720 5720
5521 5527 5529 5532 5540 5549 5559 5572 5583 5591 5593 5601 5602 5607 5612 5618 5621 5622 5629 5635 5639 5644 5651 5656 5658 5661 5665 5670 5674 5679 5686 5691 5695 5698 5701 5704 5706 5708 5709 5710 5711 5712 5712 5713
5510 5513 5513 5520 5521 5525 5551 5563 5574 5580 5577 5587 5584 5589 5599 5605 5605 5614 5621 5625 5628 5633 5638 5642 5646 5651 5657 5661 5665 5671 5678 5683 5687 5690 5692 5695 5698 5700 5701 5702 5703 5704 5706 5705
5499 5500 5498 5507 5508 5516 5537 5550 5562 5560 5567 5564 5570 5576 5580 5587 5596 5606 5611 5609 5615 5620 5626 5631 5636 5642 5649 5653 5658 5663 5670 5676 5679 5681 5685 5687 5690 5691 5693 5695 5696 5698 5698 5698
5486 5483 5487 5492 5494 5501 5526 5533 5537 5538 5547 5554 5557 5563 5569 5573 5577 5583 5589 5593 5603 5609 5613 5621 5625 5632 5637 5645 5650 5655 5661 5666 5670 5674 5676 5678 5681 5683 5685 5687 5689 5690 5691 5692
5471 5473 5475 5475 5483 5504 5495 5504 5514 5523 5534 5541 5546 5551 5555 5562 5569 5574 5580 5584 5591 5598 5603 5610 5615 5619 5627 5634 5639 5645 5652 5657 5662 5665 5667 5670 5672 5675 5676 5679 5681 5683 5683 5683
5455 5458 5458 5464 5481 5478 5482 5489 5500 5509 5518 5524 5533 5540 5545 5551 5558 5563 5570 5574 5581 5587 5592 5599 5604 5609 5615 5623 5629 5634 5640 5646 5651 5655 5658 5661 5664 5667 5669 5671 5673 5675 5675 5675
5439 5439 5446 5445 5463 5464 5473 5478 5481 5487 5500 5512 5520 5527 5533 5540 5548 5553 5559 5564 5570 5576 5582 5587 5594 5600 5604 5611 5616 5622 5630 5635 5641 5645 5649 5653 5656 5659 5661 5664 5666 5667 5668 5668
5420 5424 5425 5440 5454 5437 5452 5458 5464 5469 5483 5497 5505 5514 5520 5529 5538 5544 5549 5554 5560 5565 5571 5578 5582 5587 5593 5597 5602 5610 5619 5624 5631 5636 5640 5644 5647 5650 5654 5656 5659 5659 5660 5660